Milton, FL

12:16 PM CDT on July 28, 2017 (GMT -0500)
Whiting Field Naval Air Station (South)

Weather History for KNDZ - May, 2012

Change the Weather History Date:

Tuesday, May 29, 2012

  Actual Average (KNSE) Record (KNSE)
Temperature  
Mean Temperature 82 °F -  
Max Temperature 97 °F 83 °F 99 °F (2012)
Min Temperature 68 °F 65 °F 61 °F (2003)
Cooling Degree Days 17    
Growing Degree Days 32 (Base 50)    
Moisture  
Dew Point 67 °F    
Average Humidity 67    
Maximum Humidity 94    
Minimum Humidity 33    
Precipitation  
Precipitation 0.09 in - - ()
Sea Level Pressure  
Sea Level Pressure 29.81 in    
Wind  
Wind Speed 5 mph (NNW)    
Max Wind Speed 36 mph    
Max Gust Speed 45 mph    
Visibility 10 miles    
Events Rain , Thunderstorm    
Averages and records for this station are not official NWS values.
T = Trace of Precipitation, MM = Missing Value Source: NWS Daily Summary

Daily Weather History Graph

Daily Weather History Graph

Search for Another Location

Airport or City:

Trip Planner

Search our weather history database for the weather conditions in past years. The results will help you decide how hot, cold, wet, or windy it might be!

Date:

Astronomy

May. 29, 2012 Rise Set
Actual Time 5:46 AM CDT 7:44 PM CDT
Civil Twilight 5:19 AM CDT 8:12 PM CDT
Nautical Twilight 4:46 AM CDT 8:45 PM CDT
Astronomical Twilight 4:11 AM CDT 9:20 PM CDT
Moon 1:38 PM CDT (5/29) 1:13 AM CDT (5/29)
Length of Visible Light 14h 52m
Length of Day
13h 58m
First Quarter, 59% of the Moon is Illuminated
May 29
First Quarter
Jun 4
Full
Jun 11
Last Quarter
Jun 19
New
Jun 26
First Quarter

Hourly Weather History & Observations

Time (CDT) Temp. Heat Index Dew Point Humidity Pressure Visibility Wind Dir Wind Speed Gust Speed Precip Events Conditions
12:56 AM 73.9 °F - 66.0 °F 76% 29.81 in 10.0 mi Calm Calm - N/A   Clear
1:56 AM 70.0 °F - 64.9 °F 84% 29.79 in 10.0 mi Calm Calm - N/A   Clear
2:56 AM 71.1 °F - 66.0 °F 84% 29.79 in 10.0 mi West 3.5 mph - N/A   Clear
3:56 AM 70.0 °F - 66.0 °F 87% 29.80 in 10.0 mi North 4.6 mph - N/A   Clear
4:56 AM 72.0 °F - 66.9 °F 84% 29.81 in 10.0 mi North 5.8 mph - N/A   Clear
5:56 AM 68.0 °F - 64.9 °F 90% 29.83 in 10.0 mi NW 3.5 mph - N/A   Partly Cloudy
6:56 AM 75.0 °F - 69.1 °F 82% 29.84 in 10.0 mi North 5.8 mph - N/A   Scattered Clouds
7:56 AM 79.0 °F - 69.1 °F 72% 29.85 in 10.0 mi NNE 4.6 mph - N/A   Clear
8:56 AM 82.0 °F 85.5 °F 69.1 °F 65% 29.84 in 10.0 mi Calm Calm - N/A   Clear
9:56 AM 84.9 °F 88.8 °F 69.1 °F 59% 29.84 in 10.0 mi NNW 3.5 mph - N/A   Clear
10:56 AM 91.0 °F 95.6 °F 69.1 °F 48% 29.83 in 10.0 mi NNW 12.7 mph 17.3 mph N/A   Clear
11:56 AM 93.0 °F 95.9 °F 66.0 °F 41% 29.82 in 10.0 mi NNW 9.2 mph 19.6 mph N/A   Partly Cloudy
12:56 PM 95.0 °F 97.9 °F 66.0 °F 38% 29.81 in 10.0 mi NNW 12.7 mph 21.9 mph N/A   Partly Cloudy
1:56 PM 93.9 °F 95.6 °F 64.0 °F 37% 29.80 in 10.0 mi NW 6.9 mph 19.6 mph N/A   Partly Cloudy
2:56 PM 93.0 °F 94.6 °F 64.0 °F 38% 29.78 in 10.0 mi NNW 6.9 mph 19.6 mph N/A   Partly Cloudy
3:44 PM 96.8 °F 99.0 °F 64.4 °F 34% 29.81 in 10.0 mi North 12.7 mph 18.4 mph N/A   Partly Cloudy
3:56 PM 96.1 °F 97.3 °F 63.0 °F 33% 29.76 in 10.0 mi North 10.4 mph - N/A   Partly Cloudy
4:56 PM 93.9 °F 96.1 °F 64.9 °F 38% 29.76 in 10.0 mi NNW 10.4 mph - N/A   Clear
5:29 PM 91.4 °F 93.2 °F 64.4 °F 41% 29.80 in 10.0 mi Variable 5.8 mph - N/A Thunderstorm Thunderstorm
5:56 PM 91.0 °F 93.0 °F 64.9 °F 42% 29.76 in 10.0 mi WNW 3.5 mph - N/A Thunderstorm Thunderstorm
6:56 PM 77.0 °F - 70.0 °F 79% 29.79 in 10.0 mi WNW 15.0 mph 24.2 mph 0.00 in Rain , Thunderstorm Light Thunderstorms and Rain
7:14 PM 73.4 °F - 68.0 °F 83% 29.87 in 6.0 mi North 35.7 mph 44.9 mph 0.04 in Rain , Thunderstorm Thunderstorms and Rain
7:56 PM 72.0 °F - 66.9 °F 84% 29.79 in 10.0 mi WSW 4.6 mph - 0.08 in Rain , Thunderstorm Light Thunderstorms and Rain
8:56 PM 72.0 °F - 68.0 °F 87% 29.81 in 10.0 mi NNW 3.5 mph - 0.00 in Thunderstorm Thunderstorm
9:54 PM 71.6 °F - 69.8 °F 94% 29.87 in 10.0 mi West 3.5 mph - 0.00 in   Clear
9:56 PM 72.0 °F - 69.1 °F 91% 29.83 in 10.0 mi Calm Calm - 0.00 in   Clear
10:56 PM 73.0 °F - 69.1 °F 87% 29.82 in 10.0 mi Calm Calm - N/A   Scattered Clouds
11:56 PM 72.0 °F - 69.1 °F 91% 29.82 in 8.0 mi Calm Calm - 0.01 in   Mostly Cloudy